Big Rapids, MI

9:30 PM EDT on July 24, 2017 (GMT -0400)
Roben-Hood

Weather History for KRQB - November, 2010

Change the Weather History Date:

Tuesday, November 16, 2010

  Actual Average Record
Temperature  
Mean Temperature 40 °F -  
Max Temperature 51 °F 44 °F 62 °F (1975)
Min Temperature 28 °F 26 °F 15 °F (2002)
Degree Days  
Heating Degree Days 26    
Moisture  
Dew Point 30 °F    
Average Humidity 77    
Maximum Humidity 100    
Minimum Humidity 33    
Precipitation  
Precipitation 0.00 in - - ()
Sea Level Pressure  
Sea Level Pressure 29.77 in    
Wind  
Wind Speed 2 mph (East)    
Max Wind Speed 10 mph    
Max Gust Speed -    
Visibility 7 miles    
Events Fog , Snow    
Averages and records for this station are not official NWS values.
T = Trace of Precipitation, MM = Missing Value Source: NWS Daily Summary

Daily Weather History Graph

Daily Weather History Graph

Search for Another Location

Airport or City:

Trip Planner

Search our weather history database for the weather conditions in past years. The results will help you decide how hot, cold, wet, or windy it might be!

Date:

Astronomy

Nov. 16, 2010 Rise Set
Actual Time 7:37 AM EST 5:15 PM EST
Civil Twilight 7:06 AM EST 5:46 PM EST
Nautical Twilight 6:31 AM EST 6:21 PM EST
Astronomical Twilight 5:57 AM EST 6:55 PM EST
Moon 2:29 PM EST (11/16) 2:30 AM EST (11/16)
Length of Visible Light 10h 40m
Length of Day
9h 38m
Waxing Gibbous, 77% of the Moon is Illuminated
Nov 16
Waxing Gibbous
Nov 21
Full
Nov 28
Last Quarter
Dec 5
New
Dec 13
First Quarter

Hourly Weather History & Observations

Time (EST) Temp. Windchill Dew Point Humidity Pressure Visibility Wind Dir Wind Speed Gust Speed Precip Events Conditions
12:15 AM 30.2 °F - 28.4 °F 93% 29.86 in 10.0 mi Calm Calm - N/A   Overcast
12:35 AM 28.4 °F - 28.4 °F 100% 29.85 in 7.0 mi Calm Calm - N/A   Mostly Cloudy
12:54 AM 30.2 °F - 28.4 °F 93% 29.86 in 10.0 mi Calm Calm - N/A   Mostly Cloudy
1:15 AM 28.4 °F - 28.4 °F 100% 29.84 in 10.0 mi Calm Calm - N/A   Mostly Cloudy
1:35 AM 30.2 °F - 30.2 °F 100% 29.85 in 5.0 mi Calm Calm - N/A   Overcast
1:54 AM 32.0 °F - 32.0 °F 100% 29.84 in 7.0 mi Calm Calm - N/A   Overcast
2:15 AM 32.0 °F - 32.0 °F 100% 29.86 in 4.0 mi Calm Calm - N/A Snow Light Snow
2:35 AM 32.0 °F 28.7 °F 32.0 °F 100% 29.85 in 2.0 mi East 3.5 mph - N/A   Overcast
2:55 AM 33.8 °F 30.8 °F 33.8 °F 100% 29.84 in 4.0 mi South 3.5 mph - N/A   Overcast
3:15 AM 33.8 °F 30.8 °F 33.8 °F 100% 29.84 in 5.0 mi SSW 3.5 mph - N/A   Overcast
3:34 AM 33.8 °F 30.8 °F 33.8 °F 100% 29.84 in 5.0 mi South 3.5 mph - N/A   Overcast
3:55 AM 33.8 °F - 33.8 °F 100% 29.84 in 5.0 mi Calm Calm - N/A   Overcast
4:14 AM 33.8 °F - 33.8 °F 100% 29.84 in 3.0 mi Calm Calm - N/A   Overcast
4:35 AM 33.8 °F 30.8 °F 33.8 °F 100% 29.84 in 2.5 mi WNW 3.5 mph - N/A   Overcast
4:55 AM 33.8 °F - 33.8 °F 100% 29.84 in 2.5 mi Calm Calm - N/A   Overcast
5:14 AM 32.0 °F - 32.0 °F 100% 29.84 in 1.8 mi Calm Calm - N/A   Mostly Cloudy
5:35 AM 32.0 °F - 32.0 °F 100% 29.84 in 1.5 mi Calm Calm - N/A   Overcast
5:55 AM 32.0 °F - 32.0 °F 100% 29.84 in 3.0 mi Calm Calm - N/A   Mostly Cloudy
6:15 AM 32.0 °F - 32.0 °F 100% 29.84 in 3.0 mi Calm Calm - N/A   Clear
6:35 AM 32.0 °F - 32.0 °F 100% 29.83 in 1.5 mi Calm Calm - N/A   Mostly Cloudy
6:54 AM 30.2 °F - 30.2 °F 100% 29.84 in 0.2 mi Calm Calm - N/A Fog Light Freezing Fog
7:15 AM 30.2 °F - 30.2 °F 100% 29.84 in 0.2 mi Calm Calm - N/A Fog Light Freezing Fog
7:35 AM 28.4 °F - 28.4 °F 100% 29.84 in 0.2 mi Calm Calm - N/A Fog Light Freezing Fog
7:55 AM 28.4 °F - 28.4 °F 100% 29.84 in 0.2 mi Calm Calm - N/A Fog Light Freezing Fog
8:15 AM 30.2 °F - 30.2 °F 100% 29.84 in 0.2 mi Calm Calm - N/A Fog Light Freezing Fog
8:34 AM 32.0 °F - 32.0 °F 100% 29.83 in 1.2 mi Calm Calm - N/A   Overcast
8:55 AM 32.0 °F - 32.0 °F 100% 29.83 in 2.0 mi Calm Calm - N/A   Mostly Cloudy
9:14 AM 33.8 °F - 33.8 °F 100% 29.82 in 2.0 mi Calm Calm - N/A   Scattered Clouds
9:35 AM 35.6 °F - 35.6 °F 100% 29.81 in 4.0 mi Calm Calm - N/A   Clear
9:55 AM 37.4 °F - 37.4 °F 100% 29.80 in 7.0 mi Calm Calm - N/A   Clear
10:14 AM 39.2 °F - 35.6 °F 87% 29.79 in 10.0 mi Calm Calm - N/A   Clear
10:35 AM 41.0 °F - 35.6 °F 81% 29.80 in 10.0 mi Calm Calm - N/A   Clear
10:55 AM 42.8 °F - 33.8 °F 70% 29.79 in 10.0 mi Calm Calm - N/A   Clear
11:35 AM 46.4 °F - 33.8 °F 62% 29.77 in 10.0 mi Calm Calm - N/A   Clear
11:54 AM 48.2 °F - 33.8 °F 58% 29.75 in 10.0 mi Calm Calm - N/A   Clear
12:14 PM 51.8 °F - 26.6 °F 38% 29.75 in 10.0 mi SE 8.1 mph - N/A   Clear
12:35 PM 51.8 °F - 28.4 °F 41% 29.75 in 10.0 mi South 10.4 mph - N/A   Clear
12:55 PM 51.8 °F - 23.0 °F 33% 29.73 in 10.0 mi SSE 9.2 mph - N/A   Clear
1:15 PM 51.8 °F - 23.0 °F 33% 29.72 in 10.0 mi SE 8.1 mph - N/A   Clear
1:34 PM 51.8 °F - 23.0 °F 33% 29.71 in 10.0 mi SE 5.8 mph - N/A   Clear
1:55 PM 50.0 °F - 23.0 °F 35% 29.70 in 10.0 mi ESE 8.1 mph - N/A   Clear
2:14 PM 50.0 °F - 26.6 °F 40% 29.69 in 10.0 mi East 9.2 mph - N/A   Clear
2:35 PM 50.0 °F - 26.6 °F 40% 29.68 in 10.0 mi East 8.1 mph - N/A   Clear
2:54 PM 50.0 °F - 24.8 °F 37% 29.68 in 10.0 mi East 4.6 mph - N/A   Clear
3:15 PM 50.0 °F - 26.6 °F 40% 29.67 in 10.0 mi East 4.6 mph - N/A   Clear
3:35 PM 48.2 °F - 26.6 °F 43% 29.66 in 10.0 mi East 6.9 mph - N/A   Clear
3:55 PM 48.2 °F - 26.6 °F 43% 29.66 in 10.0 mi East 4.6 mph - N/A   Clear
4:15 PM 46.4 °F 44.3 °F 28.4 °F 50% 29.65 in 10.0 mi East 4.6 mph - N/A   Clear
4:35 PM 46.4 °F 45.2 °F 28.4 °F 50% 29.65 in 10.0 mi NE 3.5 mph - N/A   Clear
4:54 PM 46.4 °F 44.3 °F 30.2 °F 53% 29.65 in 10.0 mi ENE 4.6 mph - N/A   Clear
5:15 PM 44.6 °F 42.2 °F 30.2 °F 57% 29.66 in 10.0 mi ENE 4.6 mph - N/A   Clear
5:34 PM 44.6 °F 41.4 °F 30.2 °F 57% 29.65 in 10.0 mi ENE 5.8 mph - N/A   Clear
5:55 PM 44.6 °F 42.2 °F 30.2 °F 57% 29.65 in 10.0 mi ENE 4.6 mph - N/A   Clear
6:15 PM 44.6 °F 43.1 °F 30.2 °F 57% 29.64 in 10.0 mi NNE 3.5 mph - N/A   Clear
6:35 PM 42.8 °F 40.1 °F 30.2 °F 61% 29.63 in 10.0 mi NNE 4.6 mph - N/A   Clear
6:55 PM 42.8 °F 41.1 °F 30.2 °F 61% 29.63 in 10.0 mi North 3.5 mph - N/A   Clear
7:14 PM 42.8 °F 41.1 °F 30.2 °F 61% 29.62 in 10.0 mi North 3.5 mph - N/A   Clear
7:35 PM 41.0 °F 39.0 °F 30.2 °F 65% 29.62 in 10.0 mi North 3.5 mph - N/A   Clear
7:55 PM 41.0 °F 39.0 °F 30.2 °F 65% 29.62 in 10.0 mi North 3.5 mph - N/A   Clear
8:15 PM 42.8 °F 40.1 °F 30.2 °F 61% 29.61 in 10.0 mi NNE 4.6 mph - N/A   Clear
8:34 PM 41.0 °F 38.0 °F 30.2 °F 65% 29.61 in 10.0 mi North 4.6 mph - N/A   Clear
8:55 PM 41.0 °F 38.0 °F 30.2 °F 65% 29.60 in 10.0 mi North 4.6 mph - N/A   Clear
9:15 PM 41.0 °F 39.0 °F 30.2 °F 65% 29.59 in 10.0 mi North 3.5 mph - N/A   Clear
9:35 PM 41.0 °F 38.0 °F 30.2 °F 65% 29.59 in 10.0 mi North 4.6 mph - N/A   Clear
9:55 PM 41.0 °F 38.0 °F 32.0 °F 70% 29.59 in 10.0 mi North 4.6 mph - N/A   Clear
10:15 PM 41.0 °F 37.1 °F 32.0 °F 70% 29.58 in 10.0 mi North 5.8 mph - N/A   Clear
10:34 PM 41.0 °F 37.1 °F 32.0 °F 70% 29.58 in 10.0 mi North 5.8 mph - N/A   Clear
11:15 PM 42.8 °F 39.3 °F 32.0 °F 66% 29.57 in 10.0 mi North 5.8 mph - N/A   Clear
11:35 PM 41.0 °F - 32.0 °F 70% 29.57 in 10.0 mi Calm Calm - N/A   Clear
11:55 PM 41.0 °F 38.0 °F 32.0 °F 70% 29.58 in 10.0 mi NNW 4.6 mph - N/A   Clear